Weather reports worldwide

Advertisment
Weybourne, United Kingdom (3488): temperature & dewpoint: 29.07.2020 00:00:00 - 04.08.2020 00:00:00 (BST)Weybourne, United Kingdom (3488): wind speed & gusts: 29.07.2020 00:00:00 - 04.08.2020 00:00:00 (BST)Weybourne, United Kingdom (3488): wind direction: 29.07.2020 00:00:00 - 04.08.2020 00:00:00 (BST)Weybourne, United Kingdom (3488): reduced air pressure: 29.07.2020 00:00:00 - 04.08.2020 00:00:00 (BST)Weybourne, United Kingdom (3488): visibility: 29.07.2020 00:00:00 - 04.08.2020 00:00:00 (BST)Weybourne, United Kingdom (3488): sunshine duration: 29.07.2020 00:00:00 - 04.08.2020 00:00:00 (BST)Weybourne, United Kingdom (3488): precipitation: 29.07.2020 00:00:00 - 04.08.2020 00:00:00 (BST)
Date & Time tt [°C] td [°C] ff [km/h] ff [kn] fx [km/h] fx [kn] dd ppp [hPa] vv [km] sd [min] rr [mm]
04.08.2020 00:00:00 10,0 8,3 9 5 - - S 1017,3 50 0 0,0
03.08.2020 23:00:00 10,3 8,3 8 4 - - S 1017,1 50 0 0,0
03.08.2020 22:00:00 10,6 7,2 8 4 - - SE 1017,0 50 0 0,0
03.08.2020 21:00:00 13,4 8,9 5 3 - - SSE 1016,7 50 0 0,0
03.08.2020 20:00:00 15,0 8,1 8 4 - - ENE 1016,2 50 18 0,0
03.08.2020 19:00:00 15,8 9,6 9 5 - - NE 1016,1 45 54 0,0
03.08.2020 18:00:00 16,4 9,6 11 6 - - NNE 1016,0 50 48 0,0
03.08.2020 17:00:00 16,6 12,0 13 7 - - NNE 1015,9 30 60 0,0
03.08.2020 16:00:00 16,8 11,5 13 7 - - N 1015,8 35 30 0,0
03.08.2020 15:00:00 16,2 11,7 15 8 - - N 1016,0 45 12 0,0
03.08.2020 14:00:00 16,7 11,7 16 9 - - N 1016,0 35 36 0,0
03.08.2020 13:00:00 17,7 12,3 16 9 - - NNW 1015,8 35 60 0,0
03.08.2020 12:00:00 17,1 11,8 15 8 - - NNW 1015,6 35 60 0,0
03.08.2020 11:00:00 17,2 12,0 18 10 - - NNW 1015,5 50 60 0,0
03.08.2020 10:00:00 17,0 11,9 21 11 - - NW 1015,1 45 60 0,0
03.08.2020 09:00:00 16,6 12,2 18 10 - - NW 1014,8 45 60 0,0
03.08.2020 08:00:00 15,8 11,7 22 12 - - WNW 1014,7 45 60 0,0
03.08.2020 07:00:00 15,1 11,6 21 11 - - WNW 1014,4 50 30 0,0
03.08.2020 06:00:00 14,2 11,3 16 9 - - WNW 1014,3 50 0 0,0
03.08.2020 05:00:00 14,8 11,6 21 11 - - NW 1014,1 50 0 0,0
03.08.2020 04:00:00 15,1 11,6 22 12 - - NW 1014,1 50 0 0,0
03.08.2020 03:00:00 13,5 11,2 13 7 - - WSW 1014,2 50 0 0,0
03.08.2020 02:00:00 13,6 11,4 8 4 - - WSW 1014,4 50 0 0,0
03.08.2020 01:00:00 12,5 11,3 5 3 - - WSW 1014,4 50 - 0,0
03.08.2020 00:00:00 13,9 12,2 5 3 - - W 1014,7 50 0 0,0
02.08.2020 23:00:00 14,1 11,2 5 3 - - SW 1014,8 50 0 0,0
02.08.2020 22:00:00 15,5 11,7 4 2 - - WSW 1014,7 50 0 0,0
02.08.2020 21:00:00 16,7 11,7 8 4 - - SSE 1014,4 45 0 0,0
02.08.2020 20:00:00 18,2 12,7 8 4 - - ENE 1014,1 50 36 0,0
02.08.2020 19:00:00 19,1 13,2 8 4 - - N 1014,0 45 54 0,0
02.08.2020 18:00:00 21,3 12,4 16 9 - - WNW 1014,0 50 30 0,0
02.08.2020 17:00:00 21,1 11,2 21 11 - - WNW 1014,3 50 24 0,0
02.08.2020 16:00:00 19,6 11,8 21 11 - - WNW 1014,6 40 18 0,0
02.08.2020 15:00:00 20,0 11,9 16 9 - - NW 1014,6 30 12 0,0
02.08.2020 14:00:00 19,7 11,9 21 11 - - NW 1015,0 40 18 0,0
02.08.2020 13:00:00 19,8 12,1 24 13 - - NW 1015,3 45 24 0,0
02.08.2020 12:00:00 19,6 13,6 24 13 - - WNW 1015,3 50 36 0,0
02.08.2020 11:00:00 18,9 12,9 22 12 - - WNW 1015,2 40 42 0,0
02.08.2020 10:00:00 18,6 12,0 22 12 - - WSW 1015,1 50 60 0,0
02.08.2020 09:00:00 16,8 11,8 24 13 - - WSW 1015,1 30 54 0,0
02.08.2020 08:00:00 14,8 11,3 22 12 - - WSW 1015,1 30 54 0,0
02.08.2020 07:00:00 14,3 11,1 16 9 - - SW 1015,0 45 30 0,0
02.08.2020 06:00:00 13,2 10,0 16 9 - - WSW 1014,9 50 0 0,0
02.08.2020 05:00:00 13,5 9,9 16 9 - - W 1014,7 50 0 0,0
02.08.2020 04:00:00 14,3 10,0 21 11 - - W 1014,5 50 0 0,0
02.08.2020 03:00:00 14,8 11,3 16 9 - - WNW 1014,5 50 0 0,0
02.08.2020 02:00:00 14,9 11,6 15 8 - - W 1014,4 50 0 0,0
02.08.2020 01:00:00 16,0 13,9 13 7 - - WNW 1014,6 45 - 0,0
02.08.2020 00:00:00 17,0 14,3 16 9 - - NW 1014,6 50 0 0,0
01.08.2020 23:00:00 17,1 14,9 16 9 - - NW 1014,4 30 0 0,6
01.08.2020 22:00:00 17,5 15,3 16 9 - - NNW 1014,4 5 0 0,4
01.08.2020 21:00:00 18,0 15,2 13 7 - - N 1013,9 40 0 0,0
01.08.2020 20:00:00 19,0 14,9 26 14 - - NW 1013,4 45 0 0,0
01.08.2020 19:00:00 21,0 15,2 5 3 - - E 1012,9 8 12 0,0
01.08.2020 18:00:00 22,1 14,2 5 3 - - NE 1013,0 50 24 0,0
01.08.2020 17:00:00 24,4 13,2 13 7 - - WSW 1013,3 50 12 0,0
01.08.2020 16:00:00 21,6 15,0 9 5 - - WNW 1013,7 50 0 0,0
01.08.2020 15:00:00 21,6 15,1 21 11 - - WNW 1013,8 50 0 0,0
01.08.2020 14:00:00 20,4 15,0 13 7 - - NW 1013,8 50 18 0,0
01.08.2020 13:00:00 22,9 15,5 18 10 - - WNW 1013,7 35 36 0,0
01.08.2020 12:00:00 23,8 14,2 24 13 - - WSW 1013,4 30 60 0,0
01.08.2020 11:00:00 22,3 13,7 22 12 - - W 1013,3 35 60 0,0
01.08.2020 10:00:00 21,4 14,3 24 13 - - W 1013,3 35 60 0,0
01.08.2020 09:00:00 19,9 14,0 28 15 - - W 1013,0 40 60 0,0
01.08.2020 08:00:00 17,4 13,5 24 13 - - W 1012,9 30 42 0,0
01.08.2020 07:00:00 18,0 14,4 18 10 - - W 1012,6 45 24 0,0
01.08.2020 06:00:00 17,6 12,9 24 13 - - WSW 1011,9 50 0 0,0
01.08.2020 05:00:00 19,0 16,1 21 11 - - WSW 1011,2 50 0 0,0
01.08.2020 04:00:00 19,7 16,1 24 13 - - WSW 1010,6 50 0 0,0
01.08.2020 03:00:00 20,6 16,0 24 13 - - WSW 1010,4 50 0 0,0
01.08.2020 02:00:00 21,2 15,8 24 13 - - WSW 1010,6 50 0 0,0
01.08.2020 01:00:00 22,0 16,3 16 9 - - SW 1010,7 35 - 0,0
01.08.2020 00:00:00 23,8 15,3 16 9 - - SSW 1009,9 40 0 0,0
31.07.2020 23:00:00 24,6 14,3 16 9 - - SSW 1008,9 50 0 0,0
31.07.2020 22:00:00 24,3 13,7 16 9 - - S 1008,8 50 0 0,0
31.07.2020 21:00:00 25,1 13,6 24 13 - - SE 1008,3 50 0 0,0
31.07.2020 20:00:00 26,4 13,5 26 14 - - SE 1008,3 50 24 0,0
31.07.2020 19:00:00 28,1 12,9 31 17 - - SE 1008,7 50 60 0,0
31.07.2020 18:00:00 29,5 13,3 31 17 50 27 SE 1009,2 35 60 0,0
31.07.2020 17:00:00 30,4 11,0 31 17 50 27 SE 1009,9 35 60 0,0
31.07.2020 16:00:00 30,7 12,7 28 15 46 25 SE 1010,5 35 60 0,0
31.07.2020 15:00:00 30,4 12,2 34 18 46 25 SE 1010,8 30 60 0,0
31.07.2020 14:00:00 30,5 11,0 29 16 - - SSE 1011,4 25 60 0,0
31.07.2020 13:00:00 29,8 12,1 28 15 46 25 SE 1012,0 40 60 0,0
31.07.2020 12:00:00 28,3 11,8 34 18 50 27 SE 1012,6 35 60 0,0
31.07.2020 11:00:00 27,7 12,6 31 17 48 26 SE 1013,3 45 60 0,0
31.07.2020 10:00:00 26,2 13,1 26 14 - - SE 1013,7 45 60 0,0
31.07.2020 09:00:00 24,1 14,2 21 11 - - SE 1014,0 35 60 0,0
31.07.2020 08:00:00 21,5 14,0 26 14 - - SSE 1014,3 40 60 0,0
31.07.2020 07:00:00 19,4 13,9 28 15 - - SSE 1014,6 25 60 0,0
31.07.2020 06:00:00 18,5 13,5 31 17 - - SSE 1014,7 27 6 0,0
31.07.2020 05:00:00 18,1 12,9 28 15 - - SSE 1015,1 40 0 0,0
31.07.2020 04:00:00 17,9 12,3 29 16 - - SSE 1015,5 24 0 0,0
31.07.2020 03:00:00 17,8 11,8 31 17 - - SSE 1015,9 27 0 0,0
31.07.2020 02:00:00 17,4 10,3 29 16 - - SSE 1016,0 50 0 0,0
31.07.2020 01:00:00 15,8 11,6 9 5 - - ESE 1016,6 35 - 0,0
31.07.2020 00:00:00 17,1 10,7 28 15 - - SSE 1016,6 50 0 0,0
30.07.2020 23:00:00 17,6 10,9 28 15 - - SSE 1016,4 50 0 0,0
30.07.2020 22:00:00 18,7 11,1 28 15 - - SSE 1016,5 50 0 0,0
30.07.2020 21:00:00 20,6 8,7 28 15 - - SSE 1016,3 50 6 0,0
30.07.2020 20:00:00 22,3 9,7 21 11 - - SSE 1016,1 50 54 0,0
30.07.2020 19:00:00 24,4 10,8 21 11 - - SE 1016,1 50 54 0,0
30.07.2020 18:00:00 25,8 12,2 24 13 - - SE 1016,1 50 42 0,0
30.07.2020 17:00:00 21,2 15,2 22 12 - - E 1016,7 30 42 0,0
30.07.2020 16:00:00 21,0 15,1 24 13 - - E 1017,1 40 48 0,0
30.07.2020 15:00:00 21,7 15,8 22 12 - - E 1017,8 40 60 0,0
30.07.2020 14:00:00 20,7 15,3 24 13 - - E 1018,2 40 54 0,0
30.07.2020 13:00:00 20,2 15,4 16 9 - - ENE 1018,7 28 54 0,0
30.07.2020 12:00:00 19,7 12,6 15 8 - - NE 1019,3 40 48 0,0
30.07.2020 11:00:00 21,2 11,8 9 5 - - SSW 1019,2 40 0 0,0
30.07.2020 10:00:00 20,2 11,8 13 7 - - SSW 1019,3 45 0 0,0
30.07.2020 09:00:00 19,8 12,5 11 6 - - S 1018,8 27 0 0,0
30.07.2020 08:00:00 19,1 12,9 9 5 - - SSW 1019,0 45 42 0,0
30.07.2020 07:00:00 15,9 11,4 11 6 - - S 1018,9 50 18 0,0
30.07.2020 06:00:00 14,2 11,2 13 7 - - S 1018,7 50 0 0,0
30.07.2020 05:00:00 14,4 11,3 13 7 - - SSW 1018,8 50 0 0,0
30.07.2020 04:00:00 15,1 11,7 13 7 - - SSW 1018,8 50 0 0,0
30.07.2020 03:00:00 15,4 11,9 18 10 - - S 1018,9 50 0 0,0
30.07.2020 02:00:00 15,4 12,1 15 8 - - SSE 1018,8 50 0 0,0
30.07.2020 01:00:00 15,4 12,0 18 10 - - S 1019,2 50 - 0,0
30.07.2020 00:00:00 15,2 11,4 18 10 - - SSE 1019,1 50 0 0,0
29.07.2020 23:00:00 15,1 10,4 18 10 - - SSE 1019,3 50 0 0,0
29.07.2020 22:00:00 15,3 10,4 15 8 - - SSE 1019,3 50 0 0,0
29.07.2020 21:00:00 16,7 10,6 8 4 - - SW 1019,2 50 0 0,0
29.07.2020 20:00:00 17,6 11,5 8 4 - - W 1018,9 30 18 0,0
29.07.2020 19:00:00 18,8 11,3 15 8 - - W 1018,8 50 6 0,0
29.07.2020 18:00:00 20,3 11,2 21 11 - - WNW 1018,8 40 60 0,0
29.07.2020 17:00:00 19,9 10,4 26 14 - - WNW 1018,8 40 54 0,0
29.07.2020 16:00:00 18,5 9,6 29 16 - - WNW 1019,1 27 48 0,0
29.07.2020 15:00:00 20,3 10,3 24 13 - - W 1019,2 40 60 0,0
29.07.2020 14:00:00 19,5 10,3 21 11 - - WNW 1019,4 50 30 0,0
29.07.2020 13:00:00 17,0 10,0 24 13 - - WNW 1019,4 26 30 0,0
29.07.2020 12:00:00 16,6 9,2 26 14 - - W 1019,5 50 12 0,0
29.07.2020 11:00:00 17,5 8,3 29 16 - - W 1019,2 40 42 0,0
29.07.2020 10:00:00 16,7 6,9 34 18 50 27 W 1018,9 45 36 0,0
29.07.2020 09:00:00 15,3 8,6 29 16 - - W 1018,6 50 6 0,0
29.07.2020 08:00:00 14,2 10,6 22 12 - - W 1018,1 50 0 0,0
29.07.2020 07:00:00 13,0 9,9 24 13 - - WSW 1017,8 50 0 0,0
29.07.2020 06:00:00 12,6 9,4 22 12 - - WSW 1017,4 50 0 0,0
29.07.2020 05:00:00 12,2 9,0 24 13 - - SW 1016,9 50 0 0,0
29.07.2020 04:00:00 11,6 8,7 26 14 - - SW 1016,8 50 0 0,0
29.07.2020 03:00:00 12,0 8,5 22 12 - - SW 1016,7 50 0 0,0
29.07.2020 02:00:00 11,3 8,3 24 13 - - SW 1016,7 50 0 0,0
29.07.2020 01:00:00 12,3 8,9 24 13 - - WSW 1016,6 50 - 0,0
29.07.2020 00:00:00 13,1 8,8 29 16 - - W 1016,4 50 0 0,0

tt = temperature
td = dewpoint
ff = wind speed
fx = gusts
dd = wind direction
ppp = reduced air pressure
vv = visibility
sd = sunshine duration
rr = precipitation

Next stations